Location: Burbank
(38.7788°N, 114.0429°W)
Time: 21:48:48
(UTC+00:00)

S-56A Canister/Altair - Pass Details

Date: 14 May 2026
Orbit: 632 x 2484 km, 38.9° (Epoch: 8 June)

Event Time Altitude Azimuth Distance (km) Brightness Sun altitude
Rises 06:56:45 0° 274° (W) 2,934 10.7 -32.0°
Enters shadow 06:57:32 - 274° (W) 2,612 10.4 -32.0°
Reaches altitude 10° 06:58:52 10° 274° (W) 2,076 - -32.0°
Maximum altitude 07:03:31 89° 194° (SSW) 765 - -32.2°
Drops below altitude 10° 07:09:41 10° 97° (E) 2,728 - -32.3°
Sets 07:12:50 0° 97° (E) 3,948 - -32.4°
